| time (UTC) | temp F | wind direction | speed knots | gust knots | rain 1hr in | rain 24hr in | rain mn in | humidity % | barometer mb |
| 20260507101201 | 37 | 179 | 0.0 | 0.0 | 0.00 | 0.00 | 0.00 | 98 | 1011.7 |
| 20260507100659 | 36 | 179 | 0.0 | 0.0 | 0.00 | 0.00 | 0.00 | 98 | 1011.6 |
| 20260507100157 | 36 | 179 | 0.0 | 0.0 | 0.00 | 0.00 | 0.00 | 98 | 1011.9 |
| 20260507095655 | 36 | 179 | 0.0 | 0.0 | 0.00 | 0.00 | 0.00 | 98 | 1012.0 |
| 20260507095151 | 36 | 179 | 0.0 | 0.0 | 0.00 | 0.00 | 0.00 | 98 | 1012.0 |
| 20260507094648 | 35 | 209 | 0.0 | 0.0 | 0.00 | 0.00 | 0.00 | 98 | 1012.0 |
| 20260507094144 | 35 | 209 | 0.0 | 0.0 | 0.00 | 0.00 | 0.00 | 98 | 1011.9 |
| 20260507093642 | 35 | 209 | 0.0 | 0.0 | 0.00 | 0.00 | 0.00 | 98 | 1012.1 |
| 20260507093141 | 35 | 209 | 0.0 | 0.0 | 0.00 | 0.00 | 0.00 | 98 | 1012.0 |
| 20260507092637 | 35 | 209 | 0.0 | 0.0 | 0.00 | 0.00 | 0.00 | 98 | 1011.9 |
| 20260507092133 | 35 | 209 | 0.0 | 0.0 | 0.00 | 0.00 | 0.00 | 97 | 1011.9 |
| 20260507091630 | 35 | 209 | 0.0 | 0.0 | 0.00 | 0.00 | 0.00 | 97 | 1012.2 |
| 20260507091126 | 35 | 209 | 0.0 | 0.0 | 0.00 | 0.00 | 0.00 | 98 | 1011.9 |
| 20260507090622 | 36 | 209 | 0.0 | 0.0 | 0.00 | 0.00 | 0.00 | 97 | 1011.7 |
| 20260507090120 | 36 | 209 | 0.0 | 0.0 | 0.00 | 0.00 | 0.00 | 98 | 1011.9 |
| 20260507085616 | 36 | 209 | 0.0 | 0.0 | 0.00 | 0.00 | 0.00 | 97 | 1011.6 |
| 20260507085113 | 36 | 209 | 0.0 | 0.0 | 0.00 | 0.00 | 0.00 | 97 | 1011.9 |
| 20260507084610 | 36 | 209 | 0.0 | 0.0 | 0.00 | 0.00 | 0.00 | 97 | 1011.9 |
| 20260507084107 | 36 | 209 | 0.0 | 0.0 | 0.00 | 0.00 | 0.00 | 97 | 1011.9 |
| 20260507083603 | 37 | 209 | 0.0 | 0.0 | 0.00 | 0.00 | 0.00 | 97 | 1012.0 |
| 20260507083101 | 36 | 209 | 0.0 | 0.0 | 0.00 | 0.00 | 0.00 | 97 | 1011.7 |
| 20260507082556 | 36 | 209 | 0.0 | 0.0 | 0.00 | 0.00 | 0.00 | 97 | 1011.9 |
| 20260507082053 | 36 | 209 | 0.0 | 0.0 | 0.00 | 0.00 | 0.00 | 97 | 1012.1 |
| 20260507081549 | 36 | 209 | 0.0 | 0.0 | 0.00 | 0.00 | 0.00 | 97 | 1012.0 |
| 20260507081046 | 37 | 209 | 0.0 | 0.0 | 0.00 | 0.00 | 0.00 | 97 | 1011.9 |
| 20260507080542 | 37 | 209 | 0.0 | 0.0 | 0.00 | 0.00 | 0.00 | 97 | 1011.9 |
| 20260507080038 | 36 | 209 | 0.0 | 0.0 | 0.00 | 0.00 | 0.00 | 96 | 1011.9 |
| 20260507075533 | 36 | 209 | 0.0 | 0.0 | 0.00 | 0.00 | 0.00 | 96 | 1012.1 |
| 20260507075030 | 37 | 209 | 0.0 | 0.0 | 0.00 | 0.00 | 0.00 | 96 | 1012.1 |
| 20260507074527 | 37 | 209 | 0.0 | 0.0 | 0.00 | 0.00 | 0.00 | 96 | 1012.0 |
| 20260507074026 | 37 | 209 | 0.0 | 0.0 | 0.00 | 0.00 | 0.00 | 96 | 1012.0 |
| 20260507073521 | 37 | 209 | 0.0 | 0.0 | 0.00 | 0.00 | 0.00 | 96 | 1012.3 |
| 20260507073018 | 37 | 209 | 0.0 | 0.0 | 0.00 | 0.00 | 0.00 | 95 | 1012.4 |
| 20260507072515 | 37 | 209 | 0.0 | 0.0 | 0.00 | 0.00 | 0.00 | 95 | 1012.0 |
| 20260507072012 | 37 | 209 | 0.0 | 0.0 | 0.00 | 0.00 | 0.00 | 95 | 1012.3 |
| 20260507071509 | 37 | 209 | 0.0 | 0.0 | 0.00 | 0.00 | 0.00 | 95 | 1012.5 |
| 20260507071006 | 38 | 209 | 0.0 | 0.0 | 0.00 | 0.00 | 0.00 | 95 | 1012.3 |
| 20260507070503 | 38 | 209 | 0.0 | 0.0 | 0.00 | 0.00 | 0.00 | 95 | 1012.4 |
| 20260507070000 | 38 | 209 | 0.0 | 0.0 | 0.00 | 0.00 | 0.00 | 94 | 1012.4 |
| 20260507065456 | 39 | 209 | 0.0 | 0.0 | 0.00 | 0.00 | 0.00 | 94 | 1012.3 |
| 20260507064954 | 39 | 209 | 0.0 | 0.0 | 0.00 | 0.00 | 0.00 | 94 | 1012.2 |
| 20260507064452 | 39 | 209 | 0.0 | 0.0 | 0.00 | 0.00 | 0.00 | 94 | 1012.3 |
| 20260507063949 | 39 | 209 | 0.0 | 0.0 | 0.00 | 0.00 | 0.00 | 93 | 1012.0 |
| 20260507063446 | 40 | 209 | 0.0 | 0.0 | 0.00 | 0.00 | 0.00 | 92 | 1012.1 |
| 20260507062943 | 40 | 209 | 0.0 | 0.0 | 0.00 | 0.00 | 0.00 | 91 | 1012.1 |
| 20260507062441 | 40 | 210 | 0.0 | 0.0 | 0.00 | 0.00 | 0.00 | 91 | 1012.4 |
| 20260507061938 | 41 | 210 | 0.0 | 0.0 | 0.00 | 0.00 | 0.00 | 90 | 1012.3 |
| 20260507061436 | 41 | 210 | 0.0 | 0.0 | 0.00 | 0.00 | 0.00 | 89 | 1012.3 |
| 20260507060934 | 41 | 210 | 0.0 | 0.0 | 0.00 | 0.00 | 0.00 | 89 | 1012.4 |
| 20260507060431 | 41 | 210 | 0.0 | 0.0 | 0.00 | 0.00 | 0.00 | 89 | 1012.4 |
| 20260507055927 | 41 | 210 | 0.0 | 0.0 | 0.00 | 0.00 | 0.00 | 89 | 1012.5 |
| 20260507055422 | 41 | 210 | 0.0 | 0.0 | 0.00 | 0.00 | 0.00 | 89 | 1012.6 |
| 20260507054914 | 41 | 209 | 0.0 | 0.0 | 0.00 | 0.00 | 0.00 | 90 | 1012.9 |
| 20260507054410 | 41 | 209 | 0.0 | 0.0 | 0.00 | 0.00 | 0.00 | 90 | 1012.7 |
| 20260507053908 | 41 | 209 | 0.0 | 0.0 | 0.00 | 0.00 | 0.00 | 90 | 1012.9 |
| 20260507053405 | 41 | 209 | 0.0 | 0.0 | 0.00 | 0.00 | 0.00 | 90 | 1012.8 |
| 20260507052904 | 41 | 209 | 0.0 | 0.0 | 0.00 | 0.00 | 0.00 | 90 | 1012.8 |
| 20260507052400 | 41 | 209 | 0.0 | 0.0 | 0.00 | 0.00 | 0.00 | 90 | 1012.8 |
| 20260507051857 | 41 | 209 | 0.0 | 0.0 | 0.00 | 0.00 | 0.00 | 90 | 1012.9 |
| 20260507051355 | 41 | 209 | 0.0 | 0.0 | 0.00 | 0.00 | 0.00 | 89 | 1013.0 |
| 20260507050851 | 41 | 209 | 0.0 | 0.0 | 0.00 | 0.00 | 0.00 | 89 | 1013.0 |
| 20260507050348 | 41 | 199 | 0.0 | 0.0 | 0.00 | 0.00 | 0.00 | 89 | 1012.9 |
| 20260507045845 | 41 | 206 | 0.0 | 0.0 | 0.00 | 0.00 | 0.00 | 88 | 1013.1 |
| 20260507045342 | 41 | 229 | 0.9 | 0.9 | 0.00 | 0.00 | 0.00 | 89 | 1013.0 |
| 20260507044839 | 42 | 212 | 0.9 | 0.9 | 0.00 | 0.00 | 0.00 | 89 | 1013.0 |
| 20260507044335 | 42 | 210 | 0.9 | 0.9 | 0.00 | 0.00 | 0.00 | 90 | 1012.9 |
| 20260507043831 | 42 | 207 | 0.9 | 0.9 | 0.00 | 0.00 | 0.00 | 90 | 1013.1 |
| 20260507043328 | 42 | 212 | 0.9 | 0.9 | 0.00 | 0.00 | 0.00 | 91 | 1013.1 |
| 20260507042824 | 42 | 208 | 0.0 | 0.0 | 0.00 | 0.00 | 0.00 | 91 | 1013.0 |
| 20260507042320 | 42 | 218 | 0.9 | 0.9 | 0.00 | 0.00 | 0.00 | 92 | 1012.8 |
| 20260507041817 | 42 | 201 | 0.0 | 0.9 | 0.00 | 0.00 | 0.00 | 92 | 1012.8 |
| 20260507041314 | 42 | 198 | 0.0 | 0.0 | 0.00 | 0.00 | 0.00 | 93 | 1013.0 |
| 20260507040811 | 42 | 209 | 0.0 | 0.0 | 0.00 | 0.00 | 0.00 | 93 | 1012.9 |
| 20260507040307 | 42 | 212 | 0.0 | 0.9 | 0.00 | 0.00 | 0.00 | 93 | 1012.8 |
| 20260507035803 | 42 | 218 | 0.9 | 0.9 | 0.00 | 1.06 | 1.06 | 93 | 1012.7 |
| 20260507035258 | 42 | 170 | 0.0 | 0.0 | 0.00 | 1.06 | 1.06 | 93 | 1012.8 |
| 20260507034756 | 42 | 223 | 0.9 | 0.9 | 0.00 | 1.06 | 1.06 | 93 | 1012.8 |
| 20260507034253 | 42 | 228 | 0.9 | 0.9 | 0.00 | 1.06 | 1.06 | 93 | 1012.7 |
| 20260507033752 | 42 | 200 | 0.0 | 0.0 | 0.00 | 1.06 | 1.06 | 93 | 1012.5 |
| 20260507033249 | 42 | 211 | 1.7 | 1.7 | 0.00 | 1.06 | 1.06 | 93 | 1012.6 |
| 20260507032745 | 42 | 200 | 0.0 | 0.9 | 0.00 | 1.06 | 1.06 | 93 | 1012.8 |
| 20260507032242 | 42 | 218 | 0.9 | 0.9 | 0.00 | 1.06 | 1.06 | 93 | 1012.6 |
| 20260507031738 | 42 | 197 | 0.9 | 0.9 | 0.00 | 1.06 | 1.06 | 93 | 1012.6 |
| 20260507031235 | 42 | 215 | 0.9 | 0.9 | 0.00 | 1.06 | 1.06 | 93 | 1012.6 |
| 20260507030732 | 42 | 205 | 0.9 | 0.9 | 0.00 | 1.06 | 1.06 | 94 | 1012.5 |
| 20260507030229 | 42 | 210 | 0.9 | 0.9 | 0.00 | 1.06 | 1.06 | 94 | 1012.6 |
| 20260507025727 | 42 | 207 | 0.9 | 0.9 | 0.00 | 1.06 | 1.06 | 95 | 1012.6 |
| 20260507025223 | 42 | 209 | 0.9 | 0.9 | 0.00 | 1.06 | 1.06 | 94 | 1012.5 |
| 20260507024722 | 42 | 200 | 0.0 | 0.9 | 0.00 | 1.06 | 1.06 | 94 | 1012.4 |
| 20260507024219 | 42 | 211 | 0.9 | 1.7 | 0.00 | 1.06 | 1.06 | 94 | 1012.4 |
| 20260507023714 | 42 | 206 | 0.9 | 0.9 | 0.00 | 1.06 | 1.06 | 95 | 1012.5 |
| 20260507023211 | 42 | 230 | 0.9 | 1.7 | 0.00 | 1.06 | 1.06 | 95 | 1012.6 |
| 20260507022709 | 42 | 241 | 0.9 | 0.9 | 0.00 | 1.06 | 1.06 | 95 | 1012.5 |
| 20260507022204 | 42 | 211 | 0.9 | 1.7 | 0.00 | 1.06 | 1.06 | 95 | 1012.7 |
| 20260507021701 | 42 | 193 | 0.0 | 0.0 | 0.00 | 1.06 | 1.06 | 95 | 1012.5 |
| 20260507021156 | 42 | 203 | 0.9 | 0.9 | 0.00 | 1.06 | 1.06 | 95 | 1012.6 |
| 20260507020655 | 42 | 225 | 0.9 | 1.7 | 0.00 | 1.06 | 1.06 | 95 | 1012.7 |
| 20260507020150 | 42 | 198 | 0.9 | 0.9 | 0.00 | 1.06 | 1.06 | 95 | 1012.6 |
| 20260507015649 | 43 | 224 | 0.9 | 1.7 | 0.00 | 1.06 | 1.06 | 95 | 1012.6 |
| 20260507015146 | 42 | 242 | 1.7 | 1.7 | 0.00 | 1.06 | 1.06 | 95 | 1012.5 |
| 20260507014642 | 42 | 202 | 0.9 | 0.9 | 0.00 | 1.06 | 1.06 | 95 | 1012.6 |
| 20260507014138 | 42 | 176 | 0.9 | 1.7 | 0.00 | 1.06 | 1.06 | 95 | 1012.8 |
| 20260507013636 | 42 | 294 | 0.9 | 1.7 | 0.00 | 1.06 | 1.06 | 95 | 1012.9 |
| 20260507013132 | 43 | 207 | 1.7 | 2.6 | 0.00 | 1.06 | 1.06 | 95 | 1012.3 |
| 20260507012630 | 43 | 200 | 0.0 | 0.9 | 0.00 | 1.06 | 1.06 | 95 | 1012.5 |
| 20260507012125 | 43 | 204 | 0.9 | 0.9 | 0.00 | 1.06 | 1.06 | 95 | 1012.5 |
| 20260507011624 | 43 | 199 | 0.0 | 0.0 | 0.00 | 1.06 | 1.06 | 95 | 1012.4 |
| 20260507011119 | 43 | 194 | 0.0 | 0.9 | 0.00 | 1.06 | 1.06 | 95 | 1012.5 |
| 20260507010614 | 43 | 204 | 0.9 | 0.9 | 0.00 | 1.06 | 1.06 | 95 | 1012.4 |
| 20260507010110 | 43 | 262 | 0.0 | 0.9 | 0.00 | 1.06 | 1.06 | 95 | 1012.4 |
| 20260507005608 | 43 | 242 | 0.9 | 0.9 | 0.00 | 1.06 | 1.06 | 95 | 1012.4 |
| 20260507005104 | 44 | 209 | 0.9 | 2.6 | 0.00 | 1.06 | 1.06 | 95 | 1012.3 |
| 20260507004601 | 44 | 273 | 0.9 | 2.6 | 0.00 | 1.06 | 1.06 | 95 | 1012.2 |
| 20260507004058 | 44 | 251 | 1.7 | 1.7 | 0.00 | 1.06 | 1.06 | 95 | 1012.0 |
| 20260507003554 | 44 | 287 | 1.7 | 1.7 | 0.00 | 1.06 | 1.06 | 95 | 1011.8 |
| 20260507003049 | 44 | 271 | 1.7 | 1.7 | 0.00 | 1.06 | 1.06 | 95 | 1012.0 |
| 20260507002546 | 44 | 256 | 2.6 | 3.5 | 0.00 | 1.06 | 1.06 | 95 | 1011.8 |
| 20260507002042 | 44 | 212 | 0.9 | 1.7 | 0.00 | 1.06 | 1.06 | 95 | 1011.7 |
| 20260507001539 | 44 | 224 | 0.9 | 1.7 | 0.00 | 1.06 | 1.06 | 95 | 1011.7 |
| 20260507001037 | 45 | 253 | 2.6 | 5.2 | 0.00 | 1.06 | 1.06 | 94 | 1011.6 |
| 20260507000532 | 45 | 125 | 1.7 | 2.6 | 0.00 | 1.06 | 1.06 | 94 | 1011.6 |
| 20260507000028 | 46 | 273 | 1.7 | 2.6 | 0.00 | 1.06 | 1.06 | 93 | 1011.4 |
| 20260506235526 | 46 | 269 | 3.5 | 6.1 | 0.00 | 1.06 | 1.06 | 91 | 1011.3 |
| 20260506235021 | 47 | 317 | 2.6 | 5.2 | 0.00 | 1.06 | 1.06 | 90 | 1011.2 |
| 20260506234519 | 47 | 238 | 5.2 | 7.0 | 0.00 | 1.06 | 1.06 | 89 | 1011.3 |
| 20260506234016 | 47 | 307 | 2.6 | 2.6 | 0.00 | 1.06 | 1.06 | 88 | 1011.4 |
| 20260506233512 | 47 | 211 | 0.9 | 0.9 | 0.00 | 1.06 | 1.06 | 89 | 1010.8 |
| 20260506233010 | 48 | 282 | 2.6 | 2.6 | 0.00 | 1.06 | 1.06 | 89 | 1010.8 |
| 20260506232506 | 48 | 289 | 3.5 | 3.5 | 0.00 | 1.06 | 1.06 | 88 | 1010.8 |
| 20260506232001 | 48 | 194 | 0.0 | 0.9 | 0.00 | 1.06 | 1.06 | 89 | 1010.8 |
| 20260506231459 | 48 | 195 | 0.0 | 0.0 | 0.00 | 1.06 | 1.06 | 89 | 1010.6 |
| 20260506230956 | 48 | 187 | 0.0 | 0.9 | 0.00 | 1.06 | 1.06 | 89 | 1010.6 |
| 20260506230452 | 48 | 223 | 0.9 | 0.9 | 0.00 | 1.06 | 1.06 | 89 | 1010.5 |
| 20260506225949 | 48 | 195 | 0.0 | 0.9 | 0.00 | 1.06 | 1.06 | 89 | 1010.5 |
| 20260506225447 | 48 | 187 | 0.0 | 0.0 | 0.00 | 1.06 | 1.06 | 89 | 1010.4 |
| 20260506224943 | 48 | 193 | 0.0 | 0.0 | 0.00 | 1.06 | 1.06 | 89 | 1010.4 |
| 20260506224440 | 49 | 187 | 0.0 | 0.0 | 0.00 | 1.06 | 1.06 | 88 | 1010.5 |
| 20260506223937 | 49 | 191 | 0.0 | 0.0 | 0.00 | 1.06 | 1.06 | 88 | 1010.2 |
| 20260506223432 | 49 | 178 | 0.0 | 0.0 | 0.00 | 1.06 | 1.06 | 87 | 1010.2 |
| 20260506222930 | 49 | 187 | 0.0 | 0.0 | 0.00 | 1.06 | 1.06 | 88 | 1009.9 |
| 20260506222426 | 48 | 191 | 0.0 | 0.0 | 0.00 | 1.06 | 1.06 | 87 | 1010.1 |
| 20260506221923 | 48 | 191 | 0.0 | 0.0 | 0.00 | 1.06 | 1.06 | 88 | 1010.0 |
| 20260506221420 | 48 | 195 | 0.0 | 0.0 | 0.00 | 1.06 | 1.06 | 89 | 1010.2 |
| 20260506220918 | 48 | 195 | 0.0 | 0.0 | 0.00 | 1.06 | 1.06 | 89 | 1010.0 |
| 20260506220413 | 49 | 188 | 0.0 | 0.0 | 0.00 | 1.06 | 1.06 | 88 | 1010.1 |
| 20260506215910 | 49 | 194 | 0.0 | 0.0 | 0.00 | 1.06 | 1.06 | 88 | 1010.0 |
| 20260506215407 | 49 | 199 | 0.0 | 0.0 | 0.00 | 1.06 | 1.06 | 88 | 1010.0 |
| 20260506214902 | 48 | 190 | 0.0 | 0.0 | 0.00 | 1.06 | 1.06 | 87 | 1009.7 |
| 20260506214359 | 48 | 190 | 0.0 | 0.0 | 0.00 | 1.06 | 1.06 | 88 | 1009.8 |
| 20260506213857 | 48 | 190 | 0.0 | 0.0 | 0.00 | 1.06 | 1.06 | 89 | 1009.9 |
| 20260506213354 | 48 | 203 | 0.0 | 0.0 | 0.00 | 1.06 | 1.06 | 88 | 1010.0 |
| 20260506212852 | 48 | 204 | 0.0 | 0.0 | 0.00 | 1.06 | 1.06 | 89 | 1010.1 |
| 20260506212347 | 48 | 206 | 0.9 | 0.9 | 0.00 | 1.06 | 1.06 | 89 | 1010.1 |
| 20260506211842 | 48 | 203 | 0.0 | 0.0 | 0.00 | 1.06 | 1.06 | 88 | 1009.9 |
| 20260506211339 | 48 | 202 | 0.0 | 0.0 | 0.00 | 1.06 | 1.06 | 88 | 1009.9 |
| 20260506210836 | 48 | 196 | 0.0 | 0.0 | 0.00 | 1.06 | 1.06 | 88 | 1010.0 |
| 20260506210333 | 48 | 191 | 0.9 | 0.9 | 0.00 | 1.06 | 1.06 | 87 | 1010.0 |
| 20260506205830 | 48 | 197 | 0.0 | 0.0 | 0.00 | 1.06 | 1.06 | 88 | 1010.1 |
| 20260506205326 | 48 | 200 | 0.0 | 0.0 | 0.00 | 1.06 | 1.06 | 89 | 1010.1 |
| 20260506204822 | 48 | 258 | 1.7 | 2.6 | 0.00 | 1.06 | 1.06 | 89 | 1010.0 |
| 20260506204320 | 48 | 213 | 0.9 | 0.9 | 0.00 | 1.06 | 1.06 | 88 | 1010.0 |
| 20260506203818 | 48 | 207 | 0.0 | 0.0 | 0.00 | 1.06 | 1.06 | 88 | 1009.8 |
| 20260506203315 | 48 | 228 | 0.9 | 0.9 | 0.00 | 1.06 | 1.06 | 88 | 1009.8 |
| 20260506202811 | 47 | 204 | 0.0 | 0.0 | 0.00 | 1.06 | 1.06 | 90 | 1010.0 |
| 20260506202309 | 47 | 200 | 0.0 | 0.9 | 0.00 | 1.06 | 1.06 | 91 | 1010.0 |
| 20260506201805 | 47 | 204 | 0.0 | 0.0 | 0.00 | 1.06 | 1.06 | 92 | 1010.2 |
| 20260506201302 | 46 | 196 | 0.0 | 0.0 | 0.00 | 1.06 | 1.06 | 93 | 1010.3 |
| 20260506200759 | 46 | 204 | 0.0 | 0.0 | 0.00 | 1.06 | 1.06 | 93 | 1009.9 |
| 20260506200255 | 46 | 200 | 0.0 | 0.0 | 0.00 | 1.06 | 1.06 | 94 | 1010.0 |
| 20260506195752 | 45 | 212 | 0.0 | 0.0 | 0.00 | 1.06 | 1.06 | 95 | 1010.1 |
| 20260506195248 | 45 | 231 | 0.9 | 1.7 | 0.00 | 1.06 | 1.06 | 95 | 1010.0 |
| 20260506194746 | 45 | 187 | 0.0 | 0.0 | 0.00 | 1.06 | 1.06 | 96 | 1010.0 |
| 20260506194242 | 45 | 206 | 0.0 | 0.0 | 0.00 | 1.06 | 1.06 | 97 | 1010.2 |
| 20260506193740 | 45 | 221 | 0.9 | 1.7 | 0.00 | 1.06 | 1.06 | 97 | 1009.9 |
| 20260506193236 | 45 | 198 | 0.0 | 0.9 | 0.00 | 1.06 | 1.06 | 98 | 1009.7 |
| 20260506192732 | 45 | 204 | 0.0 | 0.0 | 0.00 | 1.06 | 1.06 | 98 | 1009.8 |
| 20260506192229 | 44 | 196 | 0.0 | 0.0 | 0.00 | 1.06 | 1.06 | 98 | 1009.7 |
| 20260506191726 | 44 | 197 | 0.0 | 0.0 | 0.00 | 1.06 | 1.06 | 98 | 1009.8 |
| 20260506191222 | 44 | 210 | 0.9 | 0.9 | 0.00 | 1.06 | 1.06 | 98 | 1009.7 |
| 20260506190720 | 44 | 200 | 0.0 | 0.0 | 0.00 | 1.06 | 1.06 | 98 | 1010.0 |
| 20260506190216 | 44 | 195 | 0.0 | 0.9 | 0.00 | 1.06 | 1.06 | 98 | 1009.8 |
| 20260506185714 | 45 | 200 | 0.0 | 0.0 | 0.00 | 1.06 | 1.06 | 98 | 1010.0 |
| 20260506185210 | 44 | 206 | 0.0 | 0.0 | 0.00 | 1.06 | 1.06 | 98 | 1010.0 |
| 20260506184708 | 44 | 223 | 0.9 | 1.7 | 0.00 | 1.06 | 1.06 | 97 | 1010.1 |
| 20260506184205 | 44 | 202 | 0.9 | 0.9 | 0.00 | 1.06 | 1.06 | 97 | 1009.9 |
| 20260506183701 | 44 | 228 | 0.9 | 0.9 | 0.00 | 1.06 | 1.06 | 97 | 1009.9 |
| 20260506183157 | 44 | 198 | 0.9 | 1.7 | 0.00 | 1.06 | 1.06 | 96 | 1009.7 |
| 20260506182655 | 45 | 230 | 0.0 | 0.9 | 0.00 | 1.06 | 1.06 | 96 | 1009.7 |
| 20260506182151 | 45 | 200 | 0.9 | 1.7 | 0.00 | 1.06 | 1.06 | 96 | 1009.7 |
| 20260506181644 | 45 | 226 | 1.7 | 2.6 | 0.00 | 1.06 | 1.06 | 96 | 1009.7 |
| 20260506181141 | 45 | 217 | 1.7 | 2.6 | 0.00 | 1.06 | 1.06 | 96 | 1009.9 |
| 20260506180638 | 45 | 203 | 0.0 | 0.9 | 0.00 | 1.06 | 1.06 | 95 | 1009.9 |
| 20260506180134 | 45 | 193 | 1.7 | 1.7 | 0.00 | 1.06 | 1.06 | 96 | 1009.7 |
| 20260506175631 | 44 | 232 | 0.9 | 0.9 | 0.00 | 1.06 | 1.06 | 96 | 1009.7 |
| 20260506175126 | 45 | 181 | 0.0 | 0.0 | 0.00 | 1.06 | 1.06 | 96 | 1009.8 |
| 20260506174626 | 45 | 205 | 0.9 | 0.9 | 0.00 | 1.06 | 1.06 | 96 | 1010.0 |
| 20260506174122 | 45 | 237 | 2.6 | 2.6 | 0.00 | 1.06 | 1.06 | 96 | 1009.7 |
| 20260506173620 | 45 | 202 | 0.9 | 0.9 | 0.00 | 1.06 | 1.06 | 96 | 1009.6 |
| 20260506173116 | 45 | 234 | 1.7 | 2.6 | 0.00 | 1.06 | 1.06 | 97 | 1009.5 |
| 20260506172614 | 44 | 216 | 1.7 | 1.7 | 0.00 | 1.06 | 1.06 | 97 | 1009.5 |
| 20260506172109 | 45 | 213 | 0.0 | 0.9 | 0.00 | 1.06 | 1.06 | 98 | 1009.5 |
| 20260506171607 | 44 | 212 | 1.7 | 2.6 | 0.00 | 1.06 | 1.06 | 98 | 1009.4 |
| 20260506171104 | 44 | 211 | 0.9 | 0.9 | 0.00 | 1.06 | 1.06 | 98 | 1009.3 |
| 20260506170601 | 44 | 208 | 0.0 | 0.0 | 0.00 | 1.06 | 1.06 | 98 | 1009.2 |
| 20260506170053 | 44 | 210 | 0.0 | 0.9 | 0.00 | 1.06 | 1.06 | 98 | 1008.9 |
| 20260506165552 | 44 | 206 | 0.0 | 0.9 | 0.00 | 1.06 | 1.06 | 98 | 1009.0 |
| 20260506165048 | 44 | 206 | 0.0 | 0.0 | 0.00 | 1.06 | 1.06 | 98 | 1009.0 |
| 20260506164545 | 44 | 246 | 0.9 | 1.7 | 0.00 | 1.06 | 1.06 | 98 | 1009.0 |
| 20260506164042 | 44 | 204 | 0.9 | 0.9 | 0.00 | 1.06 | 1.06 | 99 | 1009.1 |
| 20260506163537 | 44 | 200 | 0.0 | 0.0 | 0.00 | 1.06 | 1.06 | 99 | 1009.1 |
| 20260506163033 | 44 | 201 | 0.0 | 0.0 | 0.00 | 1.06 | 1.06 | 99 | 1008.9 |
| 20260506162529 | 44 | 200 | 0.9 | 0.9 | 0.00 | 1.06 | 1.06 | 99 | 1009.0 |
| 20260506162021 | 44 | 209 | 0.0 | 0.0 | 0.00 | 1.06 | 1.06 | 99 | 1009.0 |
| 20260506161519 | 44 | 210 | 0.0 | 0.0 | 0.00 | 1.06 | 1.06 | 99 | 1009.3 |
| 20260506161016 | 45 | 211 | 0.0 | 0.0 | 0.00 | 1.06 | 1.06 | 99 | 1008.9 |
| 20260506160513 | 45 | 211 | 0.0 | 0.0 | 0.00 | 1.06 | 1.06 | 99 | 1009.0 |
| 20260506160010 | 44 | 211 | 0.0 | 0.0 | 0.00 | 1.06 | 1.06 | 99 | 1008.9 |
| 20260506155508 | 44 | 200 | 0.0 | 0.0 | 0.00 | 1.06 | 1.06 | 99 | 1009.2 |
| 20260506153640 | 45 | 187 | 0.0 | 0.0 | 0.00 | 1.06 | 1.06 | 99 | 1009.2 |
| 20260506153137 | 44 | 189 | 0.0 | 0.0 | 0.00 | 1.06 | 1.06 | 99 | 1009.1 |
| 20260506152634 | 44 | 189 | 0.0 | 0.0 | 0.00 | 1.06 | 1.06 | 99 | 1009.0 |
| 20260506152132 | 45 | 198 | 0.0 | 0.0 | 0.00 | 1.06 | 1.06 | 99 | 1009.0 |
| 20260506151630 | 44 | 197 | 0.0 | 0.0 | 0.00 | 1.06 | 1.06 | 99 | 1008.9 |
| 20260506151127 | 44 | 197 | 0.0 | 0.0 | 0.07 | 1.06 | 1.06 | 99 | 1009.1 |
| 20260506150624 | 44 | 198 | 0.0 | 0.0 | 0.07 | 1.06 | 1.06 | 99 | 1009.1 |
| 20260506150120 | 44 | 198 | 0.0 | 0.0 | 0.05 | 1.05 | 1.05 | 99 | 1008.8 |
| 20260506145617 | 44 | 198 | 0.0 | 0.0 | 0.05 | 1.05 | 1.05 | 99 | 1008.9 |
| 20260506145114 | 43 | 198 | 0.0 | 0.0 | 0.00 | 1.04 | 1.04 | 99 | 1009.0 |
| 20260506144611 | 43 | 188 | 0.0 | 0.0 | 0.07 | 1.04 | 1.04 | 99 | 1009.0 |
| 20260506144108 | 43 | 205 | 0.0 | 0.0 | 0.07 | 1.04 | 1.04 | 99 | 1008.8 |
| 20260506143606 | 44 | 181 | 0.0 | 0.0 | 0.07 | 1.04 | 1.04 | 99 | 1008.7 |
| 20260506143104 | 43 | 183 | 0.0 | 0.0 | 0.00 | 1.03 | 1.03 | 99 | 1008.6 |
| 20260506142602 | 43 | 207 | 0.0 | 0.0 | 0.00 | 1.03 | 1.03 | 99 | 1008.6 |
| 20260506142100 | 43 | 187 | 0.0 | 0.0 | 0.00 | 1.03 | 1.03 | 99 | 1008.4 |
| 20260506141557 | 43 | 198 | 0.0 | 0.0 | 0.05 | 1.03 | 1.03 | 99 | 1008.3 |
| 20260506141055 | 43 | 195 | 0.0 | 0.0 | 0.05 | 1.03 | 1.03 | 99 | 1008.5 |
| 20260506140552 | 43 | 199 | 0.0 | 0.9 | 0.00 | 1.02 | 1.02 | 99 | 1008.2 |
| 20260506140050 | 43 | 194 | 0.0 | 0.0 | 0.07 | 1.02 | 1.02 | 99 | 1008.2 |
| 20260506135546 | 43 | 194 | 0.0 | 0.0 | 0.07 | 1.02 | 1.02 | 99 | 1008.5 |
| 20260506135042 | 43 | 183 | 0.0 | 0.0 | 0.00 | 1.01 | 1.01 | 99 | 1008.3 |
| 20260506134539 | 43 | 190 | 0.0 | 0.0 | 0.00 | 1.01 | 1.01 | 99 | 1008.2 |
| 20260506134035 | 43 | 185 | 0.0 | 0.0 | 0.05 | 1.01 | 1.01 | 99 | 1008.3 |
| 20260506133532 | 43 | 182 | 0.0 | 0.0 | 0.05 | 1.01 | 1.01 | 99 | 1008.3 |
| 20260506133029 | 43 | 182 | 0.0 | 0.0 | 0.00 | 1.00 | 1.00 | 99 | 1008.5 |
| 20260506132527 | 43 | 182 | 0.0 | 0.0 | 0.00 | 1.00 | 1.00 | 99 | 1008.5 |
| 20260506132024 | 43 | 185 | 0.0 | 0.0 | 0.00 | 1.00 | 1.00 | 99 | 1008.3 |
| 20260506131521 | 42 | 182 | 0.0 | 0.0 | 0.00 | 1.00 | 1.00 | 99 | 1008.2 |
| 20260506131017 | 42 | 182 | 0.0 | 0.0 | 0.07 | 1.00 | 1.00 | 99 | 1008.0 |
| 20260506130514 | 42 | 182 | 0.0 | 0.0 | 0.07 | 1.00 | 1.00 | 99 | 1008.1 |
| 20260506130012 | 42 | 182 | 0.0 | 0.0 | 0.07 | 1.00 | 1.00 | 99 | 1008.1 |
| 20260506125510 | 42 | 182 | 0.0 | 0.0 | 0.00 | 0.99 | 0.99 | 99 | 1008.2 |
| 20260506125007 | 42 | 182 | 0.0 | 0.0 | 0.05 | 0.99 | 0.99 | 99 | 1008.3 |
| 20260506124505 | 42 | 187 | 0.0 | 0.0 | 0.05 | 0.99 | 0.99 | 99 | 1008.4 |
| 20260506124003 | 42 | 184 | 0.0 | 0.0 | 0.05 | 0.99 | 0.99 | 99 | 1008.5 |
| 20260506123501 | 42 | 184 | 0.0 | 0.0 | 0.00 | 0.98 | 0.98 | 99 | 1008.3 |
| 20260506122958 | 42 | 200 | 0.0 | 0.0 | 0.00 | 0.98 | 0.98 | 99 | 1008.5 |
| 20260506122454 | 42 | 192 | 0.0 | 0.0 | 0.07 | 0.98 | 0.98 | 99 | 1008.4 |
| 20260506121953 | 42 | 193 | 0.0 | 0.0 | 0.07 | 0.98 | 0.98 | 99 | 1008.6 |
| 20260506121450 | 42 | 193 | 0.0 | 0.0 | 0.05 | 0.97 | 0.97 | 99 | 1008.5 |
| 20260506120946 | 42 | 196 | 0.9 | 0.9 | 0.12 | 0.97 | 0.97 | 99 | 1008.7 |
| 20260506120444 | 42 | 214 | 0.0 | 0.9 | 0.07 | 0.96 | 0.96 | 99 | 1008.6 |
| 20260506115941 | 42 | 194 | 0.0 | 0.0 | 0.07 | 0.95 | 0.95 | 99 | 1008.7 |
| 20260506115439 | 42 | 150 | 0.9 | 0.9 | 0.07 | 0.95 | 0.95 | 99 | 1008.5 |
| 20260506114937 | 42 | 192 | 0.0 | 0.0 | 0.00 | 0.94 | 0.94 | 99 | 1008.6 |
| 20260506114434 | 42 | 124 | 0.0 | 0.9 | 0.05 | 0.94 | 0.94 | 99 | 1008.3 |
| 20260506113933 | 42 | 200 | 0.0 | 0.0 | 0.05 | 0.94 | 0.94 | 99 | 1008.2 |
| 20260506113430 | 42 | 205 | 0.0 | 0.0 | 0.00 | 0.93 | 0.93 | 99 | 1008.2 |
| 20260506112926 | 42 | 207 | 0.9 | 1.7 | 0.00 | 0.93 | 0.93 | 99 | 1008.2 |
| 20260506112424 | 42 | 203 | 0.0 | 0.9 | 0.00 | 0.93 | 0.93 | 99 | 1007.8 |
| 20260506111921 | 42 | 196 | 0.0 | 0.0 | 0.00 | 0.93 | 0.93 | 99 | 1008.0 |
| 20260506111419 | 42 | 188 | 0.0 | 0.0 | 0.07 | 0.93 | 0.93 | 99 | 1007.9 |
| 20260506110916 | 42 | 174 | 0.9 | 0.9 | 0.07 | 0.93 | 0.93 | 99 | 1007.9 |
| 20260506110414 | 42 | 197 | 0.0 | 0.0 | 0.00 | 0.92 | 0.92 | 99 | 1008.0 |
| 20260506105910 | 42 | 190 | 0.9 | 0.9 | 0.00 | 0.92 | 0.92 | 99 | 1008.1 |
| 20260506105407 | 42 | 188 | 0.9 | 0.9 | 0.05 | 0.92 | 0.92 | 99 | 1008.2 |
| 20260506104904 | 42 | 188 | 0.0 | 0.0 | 0.05 | 0.92 | 0.92 | 99 | 1007.7 |
| 20260506104402 | 42 | 261 | 1.7 | 1.7 | 0.07 | 0.91 | 0.91 | 99 | 1008.1 |
| 20260506103859 | 42 | 208 | 0.9 | 0.9 | 0.12 | 0.91 | 0.91 | 99 | 1008.1 |
| 20260506103357 | 42 | 111 | 0.9 | 1.7 | 0.12 | 0.90 | 0.90 | 99 | 1008.0 |
| 20260506102854 | 43 | 197 | 0.0 | 0.0 | 0.19 | 0.89 | 0.89 | 99 | 1008.2 |
| 20260506102352 | 43 | 157 | 0.0 | 0.9 | 0.17 | 0.88 | 0.88 | 99 | 1008.1 |
| 20260506101849 | 43 | 271 | 1.7 | 2.6 | 0.17 | 0.86 | 0.86 | 99 | 1008.2 |